Weather History for Park Rapids, MN

Change the Weather History Date:

Saturday, July 5, 2014

  Actual Average Record
Temperature  
Mean Temperature 74 °F -  
Max Temperature 86 °F 81 °F 99 °F (1988)
Min Temperature 64 °F 54 °F 39 °F (2001)
Cooling Degree Days 9    
Growing Degree Days 24 (Base 50)    
Moisture  
Dew Point 67 °F    
Average Humidity 75    
Maximum Humidity 93    
Minimum Humidity 63    
Precipitation  
Precipitation 0.04 in - - ()
Sea Level Pressure  
Sea Level Pressure 29.86 in    
Wind  
Wind Speed 13 mph (SSW)    
Max Wind Speed 16 mph    
Max Gust Speed 23 mph    
Visibility 10 miles    
Events Rain    
Averages and records for this station are not official NWS values.
T = Trace of Precipitation, MM = Missing Value Source: NWS Daily Summary

Daily Weather History Graph

Daily Weather History Graph

Search for Another Location

Airport:

Trip Planner

Search our weather history database for the weather conditions in past years. The results will help you decide how hot, cold, wet, or windy it might be!

Date:

Astronomy

Jul. 05, 2014 Rise Set
Actual Time 5:32 AM CDT 9:17 PM CDT
Civil Twilight 4:53 AM CDT 9:56 PM CDT
Nautical Twilight 4:00 AM CDT 10:48 PM CDT
Astronomical Twilight 2:45 AM CDT 12:03 AM CDT
Moon 1:59 PM CDT (7/5) 12:40 AM CDT (7/5)
Length of Visible Light 17h 02m
Length of Day
15h 44m
First Quarter, 52% of the Moon is Illuminated
Jul 5
First Quarter
Jul 12
Full
Jul 18
Last Quarter
Jul 26
New
Aug 3
First Quarter

Hourly Weather History & Observations

Time (CDT) Temp. Heat Index Dew Point Humidity Pressure Visibility Wind Dir Wind Speed Gust Speed Precip Events Conditions
12:53 AM 69.1 °F - 61.0 °F 75% 29.97 in 10.0 mi South 12.7 mph - 0.00 in   Scattered Clouds
1:53 AM 68.0 °F - 62.1 °F 81% 29.96 in 10.0 mi South 13.8 mph - 0.04 in Rain Light Rain
2:53 AM 66.9 °F - 62.1 °F 84% 29.96 in 10.0 mi South 11.5 mph - 0.00 in   Clear
3:53 AM 66.0 °F - 63.0 °F 90% 29.94 in 10.0 mi South 10.4 mph - N/A   Clear
4:53 AM 64.9 °F - 63.0 °F 93% 29.92 in 10.0 mi South 10.4 mph - N/A   Clear
5:53 AM 64.9 °F - 63.0 °F 93% 29.91 in 10.0 mi South 10.4 mph - N/A   Clear
6:53 AM 66.0 °F - 63.0 °F 90% 29.91 in 10.0 mi South 12.7 mph - N/A   Clear
7:53 AM 68.0 °F - 63.0 °F 84% 29.91 in 10.0 mi South 12.7 mph - N/A   Scattered Clouds
8:53 AM 71.1 °F - 64.0 °F 78% 29.90 in 10.0 mi South 15.0 mph - N/A   Clear
9:53 AM 75.0 °F - 64.9 °F 71% 29.89 in 10.0 mi South 15.0 mph - N/A   Partly Cloudy
10:53 AM 77.0 °F - 66.0 °F 69% 29.87 in 10.0 mi SSW 13.8 mph - N/A   Partly Cloudy
11:53 AM 78.1 °F - 66.9 °F 68% 29.87 in 10.0 mi SSW 16.1 mph - N/A   Mostly Cloudy
12:30 PM 80.1 °F 82.7 °F 68.0 °F 67% 29.88 in 10.0 mi SW 16.1 mph - N/A   Mostly Cloudy
12:39 PM 79.0 °F - 68.0 °F 69% 29.87 in 10.0 mi SSW 13.8 mph - N/A   Mostly Cloudy
12:53 PM 81.0 °F 83.8 °F 68.0 °F 65% 29.84 in 10.0 mi SSW 13.8 mph - N/A   Scattered Clouds
1:53 PM 82.9 °F 86.5 °F 69.1 °F 63% 29.82 in 10.0 mi SSW 15.0 mph - N/A   Clear
2:53 PM 84.0 °F 88.4 °F 70.0 °F 63% 29.82 in 10.0 mi SSW 15.0 mph - N/A   Scattered Clouds
3:53 PM 84.0 °F 88.4 °F 70.0 °F 63% 29.83 in 10.0 mi SW 16.1 mph 23.0 mph N/A   Mostly Cloudy
4:53 PM 84.9 °F 90.1 °F 71.1 °F 63% 29.82 in 10.0 mi SSW 15.0 mph - N/A   Mostly Cloudy
5:53 PM 84.0 °F 89.0 °F 71.1 °F 65% 29.80 in 10.0 mi SSW 12.7 mph - N/A   Partly Cloudy
6:53 PM 84.9 °F 90.7 °F 72.0 °F 65% 29.78 in 10.0 mi SW 9.2 mph - N/A   Partly Cloudy
7:53 PM 82.9 °F 88.8 °F 73.0 °F 72% 29.77 in 10.0 mi SW 9.2 mph - N/A   Clear
8:53 PM 81.0 °F 85.8 °F 73.0 °F 77% 29.77 in 10.0 mi SSW 5.8 mph - N/A   Clear
9:53 PM 78.1 °F - 72.0 °F 81% 29.77 in 10.0 mi SSW 6.9 mph - N/A   Clear
10:53 PM 77.0 °F - 71.1 °F 82% 29.75 in 10.0 mi SSW 8.1 mph - N/A   Clear
11:53 PM 75.9 °F - 71.1 °F 85% 29.74 in 10.0 mi SSW 11.5 mph 18.4 mph N/A   Clear